TERRA

Last updated on Sun Apr 12 2026 00:02:17 GMT+0000 (Coordinated Universal Time)

1 25994U 99068A 26101.53420287 .00000320 00000+0 74166-4 0 9994 2 25994 97.9527 153.7028 0003655 85.0319 51.4110 14.61051058399870
UTC large
Height (km)
Speed (km/s)
/
Latitude / Longitude
Inclination (degrees)
Orbital Period (minutes)
Azimuth
Elevation
Range (km)
Doppler Factor

Next 0 passes for location: London (51.5072 / 0.1276)

Sorry there are no passes over London.
TERRA